Satellite: HUBBLE
Catalog number: 20580
Epoch time:      09078.79080150
Element set:     351
Inclination:      028.4693 deg
RA of node:       325.5652 deg
Eccentricity:    0.0003794
Arg of perigee:   065.3324 deg
Mean anomaly:     294.7653 deg
Mean motion:   15.00464984 rev/day
Decay rate:       3.75e-06 rev/day^2
Epoch rev:           83641
Checksum:              307

Satellite: PO-34
Catalog number: 25520
Epoch time:      09077.55380501
Element set:     207
Inclination:      028.4592 deg
RA of node:       141.7648 deg
Eccentricity:    0.0005091
Arg of perigee:   037.6351 deg
Mean anomaly:     322.4604 deg
Mean motion:   15.17310412 rev/day
Decay rate:       5.41e-06 rev/day^2
Epoch rev:           57487
Checksum:              278

Satellite: ISS
Catalog number: 25544
Epoch time:      09077.82043242
Element set:    0488
Inclination:      051.6415 deg
RA of node:       049.9373 deg
Eccentricity:    0.0009630
Arg of perigee:   134.8683 deg
Mean anomaly:     313.1253 deg
Mean motion:   15.71465406 rev/day
Decay rate:      -4.85e-06 rev/day^2
Epoch rev:           59173
Checksum:              305

Satellite: CO-58
Catalog number: 28895
Epoch time:      09077.72152952
Element set:     259
Inclination:      098.0707 deg
RA of node:       330.8180 deg
Eccentricity:    0.0016734
Arg of perigee:   272.2692 deg
Mean anomaly:     087.6612 deg
Mean motion:   14.59749892 rev/day
Decay rate:        4.4e-07 rev/day^2
Epoch rev:           18053
Checksum:              346

Satellite: FALCON
Catalog number: 30776
Epoch time:      09077.90373943
Element set:    0537
Inclination:      035.4339 deg
RA of node:       287.1573 deg
Eccentricity:    0.0001492
Arg of perigee:   263.5448 deg
Mean anomaly:     096.5099 deg
Mean motion:   15.03191530 rev/day
Decay rate:       3.72e-06 rev/day^2
Epoch rev:           11150
Checksum:              302

Satellite: MAST
Catalog number: 31126
Epoch time:      09077.64679068
Element set:    0552
Inclination:      097.9996 deg
RA of node:       136.5547 deg
Eccentricity:    0.0094605
Arg of perigee:   200.2757 deg
Mean anomaly:     159.4660 deg
Mean motion:   14.53483918 rev/day
Decay rate:        1.6e-07 rev/day^2
Epoch rev:           10188
Checksum:              333

Satellite: CAPE1
Catalog number: 31130
Epoch time:      09077.80265533
Element set:    0560
Inclination:      098.0027 deg
RA of node:       135.0893 deg
Eccentricity:    0.0102522
Arg of perigee:   204.5555 deg
Mean anomaly:     155.0737 deg
Mean motion:   14.52041099 rev/day
Decay rate:       1.98e-06 rev/day^2
Epoch rev:           10157
Checksum:              272

Satellite: COMPASS
Catalog number: 32787
Epoch time:      09077.19806277
Element set:    0313
Inclination:      097.9532 deg
RA of node:       141.7546 deg
Eccentricity:    0.0015122
Arg of perigee:   332.1306 deg
Mean anomaly:     027.9092 deg
Mean motion:   14.81563023 rev/day
Decay rate:       2.86e-06 rev/day^2
Epoch rev:           04797
Checksum:              303

Satellite: AAUSAT2
Catalog number: 32788
Epoch time:      09077.44354801
Element set:    0309
Inclination:      097.9538 deg
RA of node:       142.0445 deg
Eccentricity:    0.0015102
Arg of perigee:   333.2121 deg
Mean anomaly:     026.8264 deg
Mean motion:   14.81682894 rev/day
Decay rate:        1.3e-07 rev/day^2
Epoch rev:           04801
Checksum:              285

Satellite: DO-64
Catalog number: 32789
Epoch time:      09077.73357433
Element set:     317
Inclination:      097.9573 deg
RA of node:       142.4401 deg
Eccentricity:    0.0015188
Arg of perigee:   329.7245 deg
Mean anomaly:     030.3086 deg
Mean motion:   14.81639431 rev/day
Decay rate:       2.94e-06 rev/day^2
Epoch rev:            4805
Checksum:              321

Satellite: CO-66
Catalog number: 32791
Epoch time:      09078.17628724
Element set:     300
Inclination:      097.9557 deg
RA of node:       142.7576 deg
Eccentricity:    0.0015506
Arg of perigee:   327.1718 deg
Mean anomaly:     032.8528 deg
Mean motion:   14.81400818 rev/day
Decay rate:       1.03e-06 rev/day^2
Epoch rev:            4808
Checksum:              315

Satellite: RS-30
Catalog number: 32953
Epoch time:      09077.71937032
Element set:    0259
Inclination:      082.5033 deg
RA of node:       312.8830 deg
Eccentricity:    0.0019818
Arg of perigee:   018.3547 deg
Mean anomaly:     341.8244 deg
Mean motion:   12.43000083 rev/day
Decay rate:        1.0e-07 rev/day^2
Epoch rev:           03715
Checksum:              272

/EX



_______________________________________________
Via the Keps mailing list courtesy of AMSAT-NA
http://amsat.org/mailman/listinfo/keps

--- ViaMAIL!/WC v1.60d
 * Origin: Chowdanet (401-724-4410) telnet://chowdanet.com  (1:323/120)